STARLINK-4065, 52841

Orbit data source: Space-Track

STARLINK-4065, 52841 is a payload satellite owned by SpaceX/Seattle (US) in LEO that was launched on Fri, 17 Jun 2022 UTC via an FALCON 9 launch vehicle from the Air Force Eastern Test Range (AFETR). Payload-class satellites include a variety of spacecraft equipped with specific instruments for various scientific and technological missions. These include communications satellites like Starlink; space stations such as the ISS; scientific satellites like the Hubble; Earth observation satellites from companies like Planet Labs, Umbra, and HawkEye 360; GPS; miniature CubeSats for education and research; and military/defense satellites.

Loading next visibility...
Identifier
52841, 2022-062M
Orbit
LEO
Country
Flag of USUS
Related business
Manufacturer
SpaceX/Seattle
Mission
Operational Commercial Communications
Bus & Motor
STARLINK, Unknown motor
Mass
297 kg wet, ~275 kg dry
Launch date (UTC)
2022-06-17 (4 years ago)
Launch vehicle
FALCON 9
Launch site
Air Force Eastern Test Range (AFETR)
Object type
Payload
Rocket body
Debris
Shape & HBR
Box + 1 Pan, 10.1 m
Radar Cross Section
13.562 m², Large (>1 m²)

Expand to show TLE details & history
Last TLE update: 3 days ago

TLE from 3 days ago
0 STARLINK-4065
1 52841U 22062M   26170.67151183  .00001104  00000-0  87420-4 0  9991
2 52841  53.1609 296.1951 0001110  83.0928 277.0190 15.08837342221183
Epoch: 2026-06-19T16:06Z
TLE epoch observation values (Epoch: 2026-06-19T16:06:58.622Z)
Latitude
0.00002°
Longitude
146.55372°
Altitude
540.549 km
Speed
7.593 km/s
True Right ascension
19h 44m 46s
True Declination
0° 00' 00"
Sunlit
Object was in full shadow at epoch
Visualization orbit readout
Latitude
Unknown
Longitude
Unknown
Altitude
Unknown
Speed
Unknown
Apparent Right ascension
Unknown
Apparent Declination
Unknown
Sunlit
N/A
Visualization observer readout
Local Sidereal Time
21:35:14
Azimuth
Unknown
Elevation
Unknown
Doppler factor
Unknown
Orbital elements
Apogee altitude
540.773 km
Perigee altitude
539.238 km
Semi-major axis
6,918.142 km
Eccentricity
0.00011
Inclination
53.1609°
RAAN
296.1951°
Arg. of periapsis
83.0928°
True anomaly
277.00638°
Mean anomaly
277.019°
Eccentric anomaly
277.01269°
Mean motion
3.77189 °/min
Orbital period
95.44 mins
BSTAR
0.00008742
Loading maneuver chart data...
Computing Atmospheric mass density...
Loading historical data...
Loading historical data...
Loading historical data...
Loading historical data...
Loading historical data...
Loading historical data...
Loading historical data...

Documentation

Showing up to 5 results
|